Tracking 28794 objects as of 19-Apr-2024
HD Live streaming from Space Station
objects crossing your sky now

CZ-6A DEB

Track CZ-6A DEB now!
10-day predictions


NORAD ID: 54545
Int'l Code: 2022-151KV
Perigee: 824.9 km
Apogee: 906.0 km
Inclination: 98.8 °
Period: 102.1 minutes
Semi major axis: 7236 km
RCS: Unknown
Launch date: November 11, 2022
Source: People's Republic of China (PRC)
Launch site: Taiyaun Space Center, China (TSC)

Note: This is SATELLITE DEBRIS
Your satellite tracking list
Your tracking list is empty




NASA's NSSDC Master Catalog

Two Line Element Set (TLE):
1 54545U 22151KV  24109.94946228  .00002395  00000-0  13548-2 0  9996
2 54545  98.8186 114.2286 0056045 356.6131   3.4652 14.10303306 73566
Source of the keplerian elements: AFSPC